Location: San Martino di Castrozza
(46.2667°N, 11.8000°E)
Time: 15:51:23
(UTC+00:00)

Sich 1 Rocket - Pass Details

Date: 23 April 2021
Orbit: 617 x 651 km, 82.5° (Epoch: 12 May)

Event Time Altitude Azimuth Distance (km) Brightness Sun altitude
Rises 01:44:44 0° 352° (N) 2,980 7.7 -21.8°
Reaches altitude 10° 01:47:00 10° 354° (N) 2,067 6.8 -21.6°
Maximum altitude 01:51:36 76° 80° (E) 677 3.7 -21.0°
Enters shadow 01:53:55 29° 162° (SSE) 1,193 4.7 -20.8°
